EST,Max TemperatureF,Mean TemperatureF,Min TemperatureF,Max Dew PointF,MeanDew PointF,Min DewpointF,Max Humidity, Mean Humidity, Min Humidity, Max Sea Level PressureIn, Mean Sea Level PressureIn, Min Sea Level PressureIn, Max VisibilityMiles, Mean VisibilityMiles, Min VisibilityMiles, Max Wind SpeedMPH, Mean Wind SpeedMPH, Max Gust SpeedMPH,PrecipitationIn, CloudCover, Events, WindDirDegrees
2012-11-1,44,36,28,25,23,19,86,62,42,29.88,29.79,29.75,10,10,10,17,11,29,0.00,4,,308
2012-11-2,39,36,33,28,26,23,81,68,56,30.19,30.06,29.89,10,10,10,15,9,22,0.00,8,,336
2012-11-3,37,35,33,28,25,23,81,68,56,30.26,30.23,30.18,10,10,10,10,6,,0.00,8,,344
2012-11-4,39,36,33,30,26,21,75,67,56,30.27,30.24,30.22,10,10,10,12,4,17,0.00,8,,335
2012-11-5,33,28,23,25,20,18,86,67,56,30.30,30.24,30.11,10,10,9,12,5,,0.00,6,,55
2012-11-6,42,32,21,36,29,18,93,80,57,30.10,29.96,29.89,10,10,7,16,5,24,0.01,7,,190
2012-11-7,42,40,37,37,35,34,93,78,70,30.13,30.07,29.95,10,8,1,12,7,20,0.04,8,,162
2012-11-8,44,38,33,36,33,30,93,79,61,30.14,30.08,30.00,10,7,1,15,4,26,0.00,6,,217
2012-11-9,46,42,37,37,34,30,87,74,65,30.17,30.12,30.04,10,9,6,10,5,16,0.00,8,,12
2012-11-10,51,44,37,46,40,30,93,85,70,30.17,29.97,29.78,10,5,1,22,11,30,0.29,8,,95
2012-11-11,55,52,50,48,47,46,88,83,72,29.79,29.71,29.61,10,8,4,18,8,25,0.29,6,,186
2012-11-12,46,36,23,45,21,10,93,67,47,30.13,29.90,29.69,10,10,6,18,13,31,0.02,6,,256
2012-11-13,35,28,21,21,17,12,80,64,52,30.42,30.32,30.13,10,10,10,15,11,23,0.00,0,,243
2012-11-14,44,36,28,34,27,19,70,64,53,30.43,30.37,30.30,10,10,10,17,8,28,0.00,6,,207
2012-11-15,46,40,33,34,31,27,81,67,57,30.36,30.26,30.20,10,10,10,17,10,22,0.00,4,,217
2012-11-16,41,32,24,27,22,19,86,69,45,30.54,30.48,30.36,10,10,3,9,4,,0.00,0,,349
2012-11-17,44,32,19,39,28,16,93,84,66,30.50,30.47,30.44,10,7,0,14,3,21,0.00,3,,209
2012-11-18,50,39,30,43,39,28,93,81,71,30.44,30.38,30.29,10,6,0,14,7,18,0.00,1,,178
2012-11-19,50,44,37,43,40,34,93,83,71,30.30,30.19,30.08,10,6,0,14,5,21,0.00,5,,184
2012-11-20,51,41,32,43,36,28,93,86,62,30.15,30.10,30.07,7,3,0,7,1,,0.00,5,,125
2012-11-21,48,44,41,43,40,37,93,86,81,30.15,30.05,29.91,5,2,0,14,5,22,0.00,5,,190
2012-11-22,55,50,44,43,42,39,87,76,58,29.91,29.69,29.49,10,8,3,17,11,26,0.00,1,,194
2012-11-23,53,38,24,43,22,12,86,67,55,30.07,29.76,29.46,10,9,2,30,18,38,0.00,7,,293
2012-11-24,28,24,19,18,14,12,86,63,55,30.15,30.07,29.91,10,10,10,17,12,24,0.00,5,,290
2012-11-25,32,26,19,23,19,12,93,76,55,29.99,29.84,29.77,10,8,2,15,8,21,0.01,6,,268
2012-11-26,26,18,10,19,12,3,86,68,46,30.31,30.18,30.00,10,10,10,17,7,24,0.00,5,,292
2012-11-27,28,19,10,19,10,3,85,65,51,30.31,30.19,30.07,10,10,5,17,8,23,0.00,6,,244
2012-11-28,28,24,21,19,13,9,86,61,47,30.27,30.18,30.09,10,10,10,16,8,22,0.00,3,,271
2012-11-29,30,26,21,25,19,16,86,73,64,30.31,30.21,30.13,10,10,9,13,6,20,0.00,6,,9
2012-11-30,33,27,21,28,21,14,87,81,68,30.32,30.29,30.23,10,8,2,13,9,17,0.00,7,,42